Date String (YYYY-MM-DD hh:mm:ss) UTC,Instrument flags,Ambient pressure (hPa),Sample flow (lpm),Bypass flow (lpm),Sample temperature (°C),Ambient temperature (°C),ASC tube jacket temperature (°C),LED temperature (°C),Box temperature (°C),Sample RH (%),Span deviation,Mass concentration (μg/m³),Mass concentration (μg/m³),Mass concentration (μg/m³)
DateTimeUTC,F1_M11,P_M11,Q1_M11,Q2_M11,T1_M11,T2_M11,T3_M11,T4_M11,T5_M11,U1_M11,ZSPAN_M11,X0_M11,X2_M11,X1_M11
2021-10-20 11:00:00,,0829.8,4.99,0.00,23.4,22.6,00.0,32.6,25.1,19.9,0000.0,0007.81,0004.08,0003.82
2021-10-20 11:01:00,,0829.8,5.01,0.00,23.4,22.7,00.0,32.5,25.1,19.9,0000.0,0007.84,0004.10,0003.82
2021-10-20 11:02:00,,0829.9,5.00,0.00,23.4,22.7,00.0,32.5,25.1,19.9,0000.0,0007.83,0004.07,0003.81
2021-10-20 11:03:00,,0829.9,4.99,0.00,23.4,22.7,00.0,32.5,25.2,19.8,0000.0,0007.59,0004.07,0003.79
2021-10-20 11:04:00,,0829.8,4.99,0.00,23.4,22.7,00.0,32.5,25.1,19.8,0000.0,0007.56,0004.05,0003.78
2021-10-20 11:05:00,,0829.8,5.00,0.00,23.4,22.7,00.0,32.5,25.1,19.8,0000.0,0007.50,0004.05,0003.77
2021-10-20 11:06:00,,0829.8,5.01,0.00,23.3,22.6,00.0,32.5,25.1,19.8,0000.0,0007.42,0004.02,0003.77
2021-10-20 11:07:00,,0829.8,5.00,0.00,23.3,22.6,00.0,32.5,25.1,19.9,0000.0,0007.08,0004.02,0003.77
2021-10-20 11:08:00,,0829.8,4.99,0.00,23.3,22.6,00.0,32.5,25.0,19.9,0000.0,0007.08,0004.03,0003.77
2021-10-20 11:09:00,,0829.8,5.02,0.00,23.3,22.6,00.0,32.5,25.0,19.9,0000.0,0007.14,0004.05,0003.78
2021-10-20 11:10:00,,0829.8,4.99,0.00,23.3,22.5,00.0,32.5,25.0,19.9,0000.0,0007.11,0004.05,0003.78
2021-10-20 11:11:00,,0829.8,5.00,0.00,23.2,22.5,00.0,32.4,25.0,20.0,0000.0,0006.82,0004.04,0003.78
2021-10-20 11:12:00,,0829.8,5.00,0.00,23.2,22.5,00.0,32.4,25.0,20.0,0000.0,0006.76,0004.03,0003.79
2021-10-20 11:13:00,,0829.8,5.01,0.00,23.2,22.5,00.0,32.4,25.0,20.0,0000.0,0006.92,0004.09,0003.81
2021-10-20 11:14:00,,0829.8,4.99,0.00,23.2,22.4,00.0,32.4,24.9,20.0,0000.0,0006.74,0004.15,0003.85
2021-10-20 11:15:00,,0829.8,4.99,0.00,23.2,22.4,00.0,32.4,24.9,20.0,0000.0,0006.24,0004.21,0003.90
2021-10-20 11:16:00,,0829.8,5.01,0.00,23.2,22.4,00.0,32.4,24.9,20.0,0000.0,0006.27,0004.25,0003.95
2021-10-20 11:17:00,,0829.8,4.99,0.00,23.2,22.4,00.0,32.4,24.9,20.0,0000.0,0006.42,0004.31,0003.98
2021-10-20 11:18:00,,0829.8,4.99,0.00,23.1,22.4,00.0,32.4,24.9,20.0,0000.0,0006.75,0004.34,0003.99
2021-10-20 11:19:00,,0829.8,5.02,0.00,23.1,22.4,00.0,32.3,24.9,20.0,0000.0,0007.54,0004.38,0004.03
2021-10-20 11:20:00,,0829.8,5.00,0.00,23.1,22.4,00.0,32.3,24.9,20.0,0000.0,0007.84,0004.36,0004.04
2021-10-20 11:21:00,,0829.8,5.00,0.00,23.1,22.4,00.0,32.3,24.9,20.0,0000.0,0007.82,0004.35,0004.02
2021-10-20 11:22:00,,0829.9,5.00,0.00,23.1,22.4,00.0,32.3,24.9,20.0,0000.0,0007.86,0004.34,0004.01
2021-10-20 11:23:00,,0829.9,5.00,0.00,23.1,22.4,00.0,32.3,24.9,20.0,0000.0,0007.80,0004.30,0003.98
2021-10-20 11:24:00,,0829.9,5.00,0.00,23.1,22.4,00.0,32.3,24.9,20.0,0000.0,0007.67,0004.24,0003.95
2021-10-20 11:25:00,,0829.9,5.01,0.00,23.1,22.4,00.0,32.3,24.9,20.0,0000.0,0007.56,0004.18,0003.92
2021-10-20 11:26:00,,0829.9,4.99,0.00,23.1,22.4,00.0,32.3,24.9,20.0,0000.0,0007.51,0004.14,0003.88
2021-10-20 11:27:00,,0829.9,5.01,0.00,23.1,22.4,00.0,32.3,24.9,20.0,0000.0,0007.49,0004.11,0003.84
2021-10-20 11:28:00,,0829.9,5.01,0.00,23.1,22.4,00.0,32.3,24.9,20.0,0000.0,0007.44,0004.07,0003.82
2021-10-20 11:29:00,,0829.9,5.00,0.00,23.1,22.4,00.0,32.2,24.9,20.0,0000.0,0007.29,0004.04,0003.80
2021-10-20 11:30:00,,0829.9,4.99,0.00,23.1,22.4,00.0,32.2,24.9,20.0,0000.0,0006.16,0003.98,0003.76
2021-10-20 11:31:00,,0829.9,5.01,0.00,23.1,22.4,00.0,32.2,24.9,20.0,0000.0,0005.61,0003.98,0003.75
2021-10-20 11:32:00,,0829.9,5.00,0.00,23.1,22.4,00.0,32.2,24.9,20.0,0000.0,0005.63,0003.96,0003.74
2021-10-20 11:33:00,,0829.8,4.99,0.00,23.1,22.4,00.0,32.2,24.9,19.9,0000.0,0005.50,0003.94,0003.72
2021-10-20 11:34:00,,0829.9,4.99,0.00,23.1,22.4,00.0,32.2,24.9,19.9,0000.0,0005.50,0003.92,0003.71
2021-10-20 11:35:00,,0829.9,5.00,0.00,23.1,22.4,00.0,32.2,24.9,19.9,0000.0,0005.39,0003.87,0003.68
2021-10-20 11:36:00,,0830.0,5.00,0.00,23.1,22.4,00.0,32.2,24.9,19.9,0000.0,0005.32,0003.85,0003.64
2021-10-20 11:37:00,,0830.0,5.01,0.00,23.1,22.4,00.0,32.2,24.9,19.9,0000.0,0005.20,0003.81,0003.62
2021-10-20 11:38:00,,0830.0,5.00,0.00,23.1,22.4,00.0,32.2,24.9,19.9,0000.0,0005.37,0003.79,0003.59
2021-10-20 11:39:00,,0830.0,4.99,0.00,23.1,22.4,00.0,32.2,24.9,19.9,0000.0,0005.43,0003.75,0003.55
2021-10-20 11:40:00,,0830.0,4.99,0.00,23.1,22.4,00.0,32.2,24.9,19.9,0000.0,0005.30,0003.71,0003.52
2021-10-20 11:41:00,,0830.0,4.99,0.00,23.0,22.4,00.0,32.2,24.8,19.9,0000.0,0005.24,0003.68,0003.49
2021-10-20 11:42:00,,0830.0,5.00,0.00,23.0,22.3,00.0,32.2,24.9,19.9,0000.0,0005.32,0003.65,0003.46
2021-10-20 11:43:00,,0830.1,5.01,0.00,23.1,22.3,00.0,32.2,24.9,19.9,0000.0,0005.24,0003.63,0003.43
2021-10-20 11:44:00,,0830.0,5.01,0.00,23.1,22.3,00.0,32.2,24.9,19.9,0000.0,0005.14,0003.59,0003.39
2021-10-20 11:45:00,,0830.0,4.99,0.00,23.1,22.4,00.0,32.2,24.9,19.9,0000.0,0005.56,0003.56,0003.36
2021-10-20 11:46:00,,0829.9,5.00,0.00,23.1,22.4,00.0,32.2,24.9,19.8,0000.0,0006.79,0003.54,0003.33
2021-10-20 11:47:00,,0829.9,5.01,0.00,23.1,22.4,00.0,32.2,24.9,19.8,0000.0,0006.68,0003.49,0003.30
2021-10-20 11:48:00,,0829.9,4.99,0.00,23.1,22.4,00.0,32.2,24.9,19.8,0000.0,0006.63,0003.45,0003.26
2021-10-20 11:49:00,,0829.9,5.01,0.00,23.1,22.4,00.0,32.2,24.9,19.9,0000.0,0006.72,0003.40,0003.21
2021-10-20 11:50:00,,0829.8,5.00,0.00,23.0,22.3,00.0,32.2,24.9,19.9,0000.0,0007.43,0003.36,0003.17
2021-10-20 11:51:00,,0829.9,5.00,0.00,23.0,22.3,00.0,32.2,24.8,19.9,0000.0,0007.74,0003.31,0003.13
2021-10-20 11:52:00,,0829.8,4.99,0.00,23.0,22.3,00.0,32.1,24.8,20.0,0000.0,0008.21,0003.27,0003.06
2021-10-20 11:53:00,,0829.9,5.01,0.00,23.0,22.2,00.0,32.1,24.8,20.0,0000.0,0008.07,0003.21,0002.98
2021-10-20 11:54:00,,0829.9,5.00,0.00,23.0,22.2,00.0,32.1,24.8,20.0,0000.0,0008.01,0003.16,0002.91
2021-10-20 11:55:00,,0830.0,5.01,0.00,23.0,22.2,00.0,32.1,24.8,20.0,0000.0,0008.01,0003.16,0002.89
2021-10-20 11:56:00,,0830.1,5.00,0.00,23.0,22.2,00.0,32.1,24.8,19.9,0000.0,0008.76,0003.15,0002.87
2021-10-20 11:57:00,,0830.1,4.99,0.00,23.0,22.3,00.0,32.1,24.8,19.9,0000.0,0008.06,0003.12,0002.83
2021-10-20 11:58:00,,0830.0,5.00,0.00,23.0,22.2,00.0,32.1,24.8,19.9,0000.0,0007.89,0003.14,0002.82
2021-10-20 11:59:00,,0830.0,5.01,0.00,22.9,22.2,00.0,32.1,24.8,19.9,0000.0,0007.94,0003.16,0002.84
